Participated 2 times
Between 1970 and 1971
Pierre Ghisellini, France
Tour de France 2026 starts from Barcelona, Spain in

Stats and Facts from
Tour de France.

2026   2025   2024   2023  2022  2021  2020  2019   2018  2017   2016   2015  2014  2013   2012   2011  2010   2009   2008   2007   2006   2005   2004   2003   2002   2001   2000   1999   1998   1997  1996   1995   1994   1993   1992  1991   1990   1989   1988   1987   1986   1985   1984   1983  1982  1981   1980   1979  1978  1977   1976  1975  1974  1973   1972   1971   1970  1969   1968   1967   1966   1965  1964  1963   1962   1961   1960   1959   1958   1957  1956   1955   1954   1953   1952  1951  1950  1949   1948  1947  1939   1938   1937   1936   1935   1934   1933  1932   1931   1930  1929   1928   1927   1926  1925  1924  1923   1922   1921   1920   1919  1914   1913   1912   1911   1910  1909   1908   1907   1906  1905  1904   1903 

Tourstats
Sitemap

After stage 21 - 2025:
 16451 starters.
  5464 different riders.
  689 teams.
  2398 stages.
  470 restdays.
  466506.50 km.
  5925 abandoned riders.

Click map for 1952 route.
Facts from Tour de France 1952 Additional info and images from 1952.
  |   Stages.  |   Stage winners.  |   Days in jerseys.  |   Teams.  |   All riders.  |   All riders by age.  |   All riders from.  |  

  |   Rookies.  |   Withdrawls.  |   Average speed.  |   GC.  |   Polka  |   Green  |   White  |   Summits. (In tour)  |   Miscellaneous.  |  

Stage 10 on July 4th. 1952
Pick a stage:  1  2  3  4  5  6  7  8  9  10  11  12  13  14  15  16  17  18  19  20  21  22  23  

After stage 10:    Fausto Coppi  
  LausanneAlpe-d´Huez | Dist: 266.00km. | Winner: Fausto Coppi

Podium
1  Alpe d'Huez Fausto Coppiafter266.00 km.


Average speed for all riders in stage:  29,320 km./hr.

1
 Fausto Coppi  Italy08h 51' 40"=30,019  km/h

2
 Jean Robic  France08h 53' 00"+  00:01:20 =29,944  km/h

3
 Stan Ockers  Belgium08h 55' 02"+  00:03:22 =29,830  km/h

4  Antonio Gelabert  Spain08h 55' 02"+  00:03:22 =29,830  km/h

5  Jean-Baptiste Dotto  France08h 55' 07"+  00:03:27 =29,825  km/h

6  Andrea Carrea  Italy08h 55' 09"+  00:03:29 =29,823  km/h

7  Pierre Molineris  Sud Est08h 55' 40"+  00:04:00 =29,795  km/h

8  Jan Nolten  Holland08h 55' 42"+  00:04:02 =29,793  km/h

9  Fiorenzo Magni  Italy08h 55' 53"+  00:04:13 =29,783  km/h

10  Alexandre Close  Belgium08h 55' 55"+  00:04:15 =29,781  km/h

11  Bernardo Ruíz  Spain08h 55' 57"+  00:04:17 =29,779  km/h

12  Gino Bartali  Italy08h 57' 01"+  00:05:21 =29,720  km/h

13  Raphaël Geminiani  France08h 57' 38"+  00:05:58 =29,686  km/h

14  Gottfried Weilenmann  Switzerland08h 57' 49"+  00:06:09 =29,676  km/h

15  Alois De Hertog  Belgium08h 57' 56"+  00:06:16 =29,669  km/h

16  Francisco Masip  Spain08h 58' 13"+  00:06:33 =29,653  km/h

17  Jean Le Guilly  Ouest-Sud Ouest08h 58' 29"+  00:06:49 =29,639  km/h

18  Adolphe Deledda  Nord Est-Centre08h 58' 33"+  00:06:53 =29,635  km/h

19  Lucien Lazarides  France08h 58' 43"+  00:07:03 =29,626  km/h

20  Wout Wagtmans  Holland08h 58' 44"+  00:07:04 =29,625  km/h

21  Nello Lauredi  France08h 58' 44"+  00:07:04 =29,625  km/h

22  Franco Franchi  Italy08h 58' 44"+  00:07:04 =29,625  km/h

23  Carlo Lafranchi  Switzerland09h 00' 02"+  00:08:22 =29,554  km/h

24  José Serra Gil  Spain09h 00' 09"+  00:08:29 =29,547  km/h

25  Marcel Fernandez  North Africa09h 00' 14"+  00:08:34 =29,543  km/h

26  Marcel Zelasco  North Africa09h 00' 15"+  00:08:35 =29,542  km/h

27  Jacques Marinelli  Paris09h 00' 35"+  00:08:55 =29,524  km/h

28  Hans Dekkers  Holland09h 00' 45"+  00:09:05 =29,515  km/h

29  Gerrit Voorting  Holland09h 00' 51"+  00:09:11 =29,509  km/h

30  Eduard Van Ende  Belgium09h 00' 57"+  00:09:17 =29,504  km/h

31  Jean Bertaina  Sud Est09h 01' 29"+  00:09:49 =29,475  km/h

32  Maurice Quentin  France09h 01' 33"+  00:09:53 =29,471  km/h

33  Jean Diederich  Luxembourg09h 02' 05"+  00:10:25 =29,442  km/h

34  Jacques Vivier  Ouest-Sud Ouest09h 02' 14"+  00:10:34 =29,434  km/h

35  Jean De Gribaldy  Nord Est-Centre09h 02' 20"+  00:10:40 =29,428  km/h

36  Robert Bonnaventure  France09h 02' 23"+  00:10:43 =29,426  km/h

37  Vincent Vitetta  Sud Est09h 02' 24"+  00:10:44 =29,425  km/h

38  Thijs Roks  Holland09h 02' 24"+  00:10:44 =29,425  km/h

39  Rene Rotta  Sud Est09h 02' 25"+  00:10:45 =29,424  km/h

40  Wim van Est  Holland09h 02' 26"+  00:10:46 =29,423  km/h

41  José Pérez  Spain09h 02' 42"+  00:11:02 =29,409  km/h

42  Robert Bintz  Luxembourg09h 02' 56"+  00:11:16 =29,396  km/h

43  André Rosseel  Belgium09h 02' 59"+  00:11:19 =29,393  km/h

44  Andrès Trobat  Spain09h 02' 59"+  00:11:19 =29,393  km/h

45  Lucien Teisseire  France09h 03' 40"+  00:12:00 =29,356  km/h

46  Raoul Remy  France09h 03' 40"+  00:12:00 =29,356  km/h

47  Jean Goldschmit  Luxembourg09h 03' 41"+  00:12:01 =29,355  km/h

48  Guy Lapébie  Ouest-Sud Ouest09h 04' 21"+  00:12:41 =29,319  km/h

49  Jacques Renaud  Paris09h 04' 37"+  00:12:57 =29,305  km/h

50  Johny Goedert  Luxembourg09h 04' 46"+  00:13:06 =29,297  km/h

51  Jean Malléjac  Ouest-Sud Ouest09h 05' 16"+  00:13:36 =29,270  km/h

52  Raymond Scardin  Ouest-Sud Ouest09h 05' 16"+  00:13:36 =29,270  km/h

53  Walter Diggelmann  Switzerland09h 05' 23"+  00:13:43 =29,264  km/h

54  Siro Bianchi  Sud Est09h 05' 34"+  00:13:54 =29,254  km/h

55  Ahmed Kebaïli  North Africa09h 05' 37"+  00:13:57 =29,251  km/h

56  Maurice Neyt  Belgium09h 05' 40"+  00:14:00 =29,249  km/h

57  Willy Kemp  Luxembourg09h 05' 41"+  00:14:01 =29,248  km/h

58  Giuseppe Mirando  Sud Est09h 06' 32"+  00:14:52 =29,202  km/h

59  Roger Decock  Belgium09h 07' 42"+  00:16:02 =29,140  km/h

60  Roger Rossinelli  Nord Est-Centre09h 08' 44"+  00:17:04 =29,085  km/h

61  Giovanni Corrieri  Italy09h 08' 45"+  00:17:05 =29,084  km/h

62  Alfredo Martini  Italy09h 08' 45"+  00:17:05 =29,084  km/h

63  Henk Faanhof  Holland09h 08' 45"+  00:17:05 =29,084  km/h

64  Giulio Bresci  Italy09h 08' 45"+  00:17:05 =29,084  km/h

65  Luciano Pezzi  Italy09h 08' 45"+  00:17:05 =29,084  km/h

66  Ettore Milano  Italy09h 08' 45"+  00:17:05 =29,084  km/h

67  José Gil Sole  Spain09h 08' 45"+  00:17:05 =29,084  km/h

68  Fiorenzo Crippa  Italy09h 08' 45"+  00:17:05 =29,084  km/h

69  Antonin Rolland  France09h 08' 45"+  00:17:05 =29,084  km/h

70  Heinrich Spuhler  Switzerland09h 08' 45"+  00:17:05 =29,084  km/h

71  Bernard Gauthier  France09h 08' 45"+  00:17:05 =29,084  km/h

72  Martin Metzger  Switzerland09h 09' 18"+  00:17:38 =29,055  km/h

73  Pierre Pardoën  Nord Est-Centre09h 10' 11"+  00:18:31 =29,009  km/h

74  Settimo Sabbadini  Ouest-Sud Ouest09h 10' 12"+  00:18:32 =29,008  km/h

75  Gilbert Bauvin  Nord Est-Centre09h 10' 17"+  00:18:37 =29,003  km/h

76  Noel Lajoie  Nord Est-Centre09h 10' 32"+  00:18:52 =28,990  km/h

77  Vincent Soler  North Africa09h 10' 39"+  00:18:59 =28,984  km/h

78  Mario Baroni  Italy09h 11' 38"+  00:19:58 =28,932  km/h

79  Eugène Telotte  Paris09h 12' 18"+  00:20:38 =28,897  km/h

80  Hein Van Breenen  Holland09h 12' 25"+  00:20:45 =28,891  km/h

81  Adolphe Pezzuli  Sud Est09h 12' 56"+  00:21:16 =28,864  km/h

82  Gerard Guercy  North Africa09h 15' 41"+  00:24:01 =28,721  km/h

83  Georges Decaux  Paris09h 16' 12"+  00:24:32 =28,695  km/h

84  Henri Paret  North Africa09h 16' 31"+  00:24:51 =28,678  km/h

85  André Bernard  Ouest-Sud Ouest09h 16' 41"+  00:25:01 =28,670  km/h

86  Paul Giguet  Sud Est09h 18' 12"+  00:26:32 =28,592  km/h

87  Abdel-Kader Zaaf  North Africa09h 18' 13"+  00:26:33 =28,591  km/h

88  Jean Delahaye  Ouest-Sud Ouest09h 25' 29"+  00:33:49 =28,224  km/h


Withdrawls: 1
 RiderTeamReason
99   Michel Llorca Sud EstDid not finish
Todays birthdays.

1889 • Adolphe Landon
1890 • Jules Lebreton
1904 • Julien Grujon
1909 • Erich Metze
1926 • Giovanni Rossi
1928 • Serge Blusson
1928 • Alois Vansteenkiste
1931 • André Dupré
1934 • Alfred Rüegg
1962 • Francisco Espinosa
1962 • Paul Kimmage
1963 • Federico Muñoz
1966 • Andrea Tafi
1971 • Emmanuel Magnien
1973 • Paolo Savoldelli
1985 • Mikhail Ignatyev

 

Optimized for Chrome - Edge
and Opera browsers.